[[{"header":{"parameterUnit":"m.s-1","parameterCategory":1,"la1":30.2991,"la2":30.254,"lo1":-89.0895,"lo2":-89.0444,"dy":0.0017,"dx":0.0017,"nx":28,"ny":28,"refTime":"2023-04-20T21:00:00:Z","depth":0,"parameterNumber":2,"parameterNumberName":"U-component_of_WINDS"},"data":[0,0,0,0,0,0,0,0,0,0,0,0,0,0,0,0,0,0,0,0,0,0,0,0,0,0,0,0,0,0,0,0,0,0,0,0,0,0,0,0,0,0,0,0,0,0,0,0,0,0,0,0,0,0,0,0,0,0,-0.6688,-0.6689,0,-0.6766,-0.6767,-0.6768,-0.6801,-0.6801,-0.6801,-0.68,-0.6883,-0.6885,-0.6888,0,0,0,0,0,0,0,0,0,0,0,0,0,-0.6571,-0.6573,-0.6688,-0.6689,-0.669,-0.6766,-0.6767,-0.6768,-0.6801,-0.6801,-0.6801,-0.68,-0.6882,-0.6885,-0.6888,0,0,0,0,0,0,0,0,0,0,0,0,0,-0.6633,-0.6574,-0.6688,-0.6715,-0.6719,-0.6766,-0.6767,-0.6768,-0.6801,-0.6801,-0.6801,-0.68,-0.6882,-0.6885,-0.6888,-0.6915,0,0,-0.6899,-0.6901,0,0,0,0,0,0,0,0,-0.6629,-0.6637,-0.671,-0.6714,-0.6717,-0.6774,-0.6756,-0.6818,-0.6801,-0.677,-0.68,-0.68,-0.6847,-0.6853,-0.6869,-0.6919,-0.6922,-0.6899,-0.6902,-0.6903,-0.6904,0,0,0,0,0,0,0,-0.6625,-0.6634,-0.6719,-0.6711,-0.6716,-0.6725,-0.6734,-0.6768,-0.6809,-0.6773,-0.6775,-0.6784,-0.6849,-0.6865,-0.6871,-0.6923,-0.6899,-0.6903,-0.6905,-0.6906,-0.7001,-0.7001,0,0,0,0,0,0,-0.6616,-0.663,-0.6717,-0.6721,-0.6672,-0.6727,-0.6737,-0.6756,-0.6809,-0.6816,-0.6784,-0.6785,-0.6859,-0.6867,-0.6874,-0.6909,-0.6903,-0.6906,-0.6908,-0.7,-0.7001,-0.7001,0,0,0,0,0,0,-0.6613,-0.6623,-0.6713,-0.6677,-0.6689,-0.673,-0.6751,-0.6757,-0.6774,-0.6817,-0.6825,-0.6793,-0.6859,-0.6869,-0.6905,-0.6912,-0.6908,-0.6911,-0.7,-0.7,-0.7001,-0.6979,0,0,0,0,0,0,-0.661,-0.6622,-0.6631,-0.6676,-0.6691,-0.6741,-0.6751,-0.6759,-0.6779,-0.6782,-0.6827,-0.6835,-0.686,-0.6899,-0.6908,-0.6917,-0.6914,-0.6999,-0.7,-0.7001,-0.6979,-0.6979,-0.6978,0,0,0,0,0,-0.6605,-0.6622,-0.6632,-0.6642,-0.6703,-0.6742,-0.675,-0.6778,-0.678,-0.679,-0.6819,-0.6833,-0.691,-0.6902,-0.6913,-0.6923,-0.6999,-0.7,-0.7001,-0.6979,-0.6979,-0.6978,0,0,0,0,0,0,-0.6578,-0.6629,-0.664,-0.6672,-0.6702,-0.6747,-0.6761,-0.6776,-0.6807,-0.6808,-0.6842,-0.6852,-0.6885,-0.6908,-0.6898,-0.6952,-0.6956,-0.6959,-0.6936,-0.6936,-0.6935,-0.6929,-0.6917,0,0,0,0,0,-0.6576,-0.6602,-0.6645,-0.6669,-0.6684,-0.672,-0.6738,-0.6757,-0.679,-0.6803,-0.6834,-0.6867,-0.6898,-0.6918,-0.695,-0.6983,-0.6994,-0.6995,-0.6995,-0.6994,-0.6996,-0.7017,-0.7018,-0.7004,-0.7004,-0.7004,0,0,-0.6571,-0.6602,-0.6617,-0.6665,-0.669,-0.6718,-0.6731,-0.6759,-0.678,-0.6808,-0.6843,-0.6867,-0.6906,-0.694,-0.6957,-0.696,-0.7003,-0.6995,-0.6994,-0.6997,-0.7018,-0.7019,-0.702,-0.7005,-0.7005,-0.7005,0,0,-0.6577,-0.6602,-0.6626,-0.6651,-0.669,-0.6714,-0.672,-0.6763,-0.678,-0.6816,-0.6837,-0.6864,-0.6917,-0.6944,-0.6965,-0.6982,-0.6998,-0.6992,-0.699,-0.7009,-0.701,-0.7011,-0.7018,-0.702,-0.6994,-0.6994,-0.6994,0,-0.6567,-0.6608,-0.6636,-0.6664,-0.6685,-0.671,-0.6735,-0.6759,-0.6806,-0.6821,-0.6823,-0.6892,-0.692,-0.6961,-0.6966,-0.6981,-0.699,-0.6987,-0.7007,-0.7009,-0.7011,-0.7018,-0.702,-0.6993,-0.6993,-0.6993,-0.6993,0,-0.6594,-0.6622,-0.6637,-0.6681,-0.6704,-0.6729,-0.6763,-0.6783,-0.68,-0.6824,-0.6861,-0.6896,-0.6935,-0.6947,-0.6964,-0.6991,-0.6992,-0.7001,-0.7005,-0.701,-0.7018,-0.7021,-0.6991,-0.6992,-0.6992,-0.6992,0,0,-0.6584,-0.6644,-0.6649,-0.667,-0.6715,-0.6738,-0.6766,-0.6804,-0.682,-0.6853,-0.6878,-0.6923,-0.6931,-0.6955,-0.6976,-0.6992,-0.7005,-0.6999,-0.7001,-0.7,-0.7039,-0.7033,-0.7035,-0.7016,-0.7016,-0.7017,-0.7036,0,-0.6596,-0.6646,-0.6673,-0.6711,-0.6739,-0.6764,-0.6789,-0.682,-0.6844,-0.6871,-0.6898,-0.693,-0.6938,-0.6953,-0.697,-0.7,-0.7014,-0.6999,-0.7041,-0.7042,-0.703,-0.7039,-0.7032,-0.7048,-0.7039,-0.704,-0.704,0,-0.6617,-0.6648,-0.6689,-0.6732,-0.6745,-0.6766,-0.6803,-0.6829,-0.6866,-0.6882,-0.6908,-0.6929,-0.6961,-0.6963,-0.7008,-0.6997,-0.7016,-0.7033,-0.7035,-0.704,-0.7041,-0.7045,-0.7054,-0.7057,-0.7045,-0.7044,-0.7044,0,-0.6606,-0.6659,-0.669,-0.6707,-0.6758,-0.6773,-0.6795,-0.6831,-0.6852,-0.6885,-0.69,-0.6937,-0.6957,-0.6985,-0.7016,-0.7014,-0.7059,-0.7063,-0.7074,-0.7073,-0.7082,-0.7081,-0.7095,-0.7094,-0.7094,-0.7093,-0.7093,0,-0.6618,-0.6642,-0.6686,-0.6706,-0.6735,-0.6766,-0.6794,-0.6818,-0.685,-0.6876,-0.6901,-0.6925,-0.6964,-0.6993,-0.7017,-0.7052,-0.706,-0.7075,-0.7082,-0.7073,-0.7071,-0.7086,-0.7086,-0.7094,-0.7094,-0.7094,-0.7094,0,-0.661,-0.6641,-0.6677,-0.6722,-0.6734,-0.6754,-0.6793,-0.6814,-0.6839,-0.6871,-0.6881,-0.6921,-0.6956,-0.699,-0.7038,-0.7054,-0.7089,-0.7097,-0.7076,-0.708,-0.7089,-0.7088,-0.7113,-0.7119,-0.7113,-0.7113,-0.7113,0,-0.6615,-0.6635,-0.6682,-0.67,-0.6722,-0.6751,-0.6773,-0.6805,-0.6827,-0.6871,-0.6887,-0.6924,-0.6956,-0.7012,-0.7047,-0.7084,-0.7093,-0.7099,-0.7099,-0.709,-0.7094,-0.7093,-0.7095,-0.7099,-0.7099,-0.7099,-0.7099,0,-0.6622,-0.6636,-0.6666,-0.6701,-0.6726,-0.6756,-0.6787,-0.6801,-0.684,-0.6864,-0.69,-0.6924,-0.6973,-0.7011,-0.7052,-0.7077,-0.7095,-0.7098,-0.7103,-0.7095,-0.7083,-0.709,-0.7075,-0.7098,-0.7098,-0.7098,-0.7098,-0.7098,-0.6621,-0.664,-0.6676,-0.6709,-0.6735,-0.6764,-0.6786,-0.6813,-0.6844,-0.6886,-0.6903,-0.6941,-0.6979,-0.7036,-0.706,-0.7091,-0.7094,-0.7101,-0.7103,-0.7104,-0.7103,-0.7077,-0.7098,-0.7098,-0.7098,-0.7098,-0.7098,0,-0.6629,-0.6654,-0.6684,-0.6725,-0.6752,-0.6765,-0.6801,-0.6822,-0.6854,-0.6887,-0.6918,-0.6961,-0.6997,-0.7034,-0.7074,-0.7091,-0.7101,-0.71,-0.71,-0.7105,-0.7097,-0.7089,-0.7092,-0.7092,-0.7092,-0.7092,-0.7092,-0.7092,-0.6636,-0.6669,-0.6688,-0.6734,-0.6759,-0.6795,-0.6814,-0.6841,-0.6868,-0.6914,-0.6944,-0.6968,-0.7003,-0.7045,-0.708,-0.7091,-0.7104,-0.7102,-0.7114,-0.7106,-0.7106,-0.7106,-0.7099,-0.7104,-0.7104,-0.7121,-0.7121,-0.7121]},{"header":{"parameterUnit":"m.s-1","parameterCategory":1,"la1":30.2991,"la2":30.254,"lo1":-89.0895,"lo2":-89.0444,"dy":0.0017,"dx":0.0017,"nx":28,"ny":28,"refTime":"2023-04-20T21:00:00:Z","depth":0,"parameterNumber":3,"parameterNumberName":"V-component_of_WINDS"},"data":[0,0,0,0,0,0,0,0,0,0,0,0,0,0,0,0,0,0,0,0,0,0,0,0,0,0,0,0,0,0,0,0,0,0,0,0,0,0,0,0,0,0,0,0,0,0,0,0,0,0,0,0,0,0,0,0,0,0,2.1492,2.1492,0,2.1488,2.1488,2.1488,2.1435,2.1434,2.1432,2.1431,2.1427,2.1428,2.143,0,0,0,0,0,0,0,0,0,0,0,0,0,2.1453,2.1454,2.1492,2.1492,2.1492,2.1488,2.1488,2.1488,2.1435,2.1434,2.1432,2.143,2.1427,2.1428,2.143,0,0,0,0,0,0,0,0,0,0,0,0,0,2.1462,2.1454,2.1492,2.1465,2.1463,2.1488,2.1488,2.1488,2.1436,2.1433,2.1431,2.143,2.1427,2.1428,2.143,2.1482,0,0,2.1435,2.1436,0,0,0,0,0,0,0,0,2.1461,2.1463,2.1469,2.1467,2.1464,2.146,2.1473,2.1486,2.1436,2.1446,2.1431,2.1429,2.144,2.144,2.1444,2.1481,2.1481,2.1435,2.1437,2.1437,2.1438,0,0,0,0,0,0,0,2.1461,2.1463,2.1491,2.1469,2.1466,2.1453,2.1452,2.1475,2.1454,2.1445,2.1441,2.1441,2.1438,2.1443,2.1444,2.1481,2.1435,2.1437,2.1438,2.1439,2.1561,2.1563,0,0,0,0,0,0,2.1464,2.1463,2.1491,2.1491,2.1458,2.1455,2.1454,2.1463,2.1454,2.1451,2.1443,2.1439,2.1441,2.1442,2.1443,2.1504,2.1437,2.1439,2.144,2.1559,2.1561,2.1564,0,0,0,0,0,0,2.1463,2.1467,2.1491,2.1476,2.1478,2.1458,2.1469,2.1464,2.1469,2.1453,2.1448,2.1451,2.1439,2.1441,2.1473,2.1503,2.144,2.1441,2.1556,2.1559,2.1562,2.1624,0,0,0,0,0,0,2.1463,2.1467,2.1487,2.1477,2.1479,2.152,2.1471,2.1466,2.1472,2.1466,2.1459,2.1456,2.1438,2.147,2.1474,2.1504,2.1443,2.1553,2.1558,2.1561,2.1619,2.1629,2.1638,0,0,0,0,0,2.1461,2.1504,2.1488,2.1491,2.1503,2.1522,2.1523,2.1501,2.1475,2.1494,2.1484,2.1456,2.1499,2.1474,2.1478,2.1509,2.1551,2.1556,2.1561,2.1615,2.1627,2.1637,0,0,0,0,0,0,2.1518,2.1502,2.1484,2.1525,2.1525,2.1513,2.1537,2.1514,2.1522,2.1517,2.1489,2.1488,2.1524,2.1519,2.1492,2.1558,2.152,2.1526,2.156,2.1571,2.158,2.1581,2.1444,0,0,0,0,0,2.1535,2.1552,2.1537,2.1575,2.1576,2.1557,2.1564,2.1547,2.1546,2.1546,2.1538,2.1538,2.1552,2.1561,2.1572,2.1618,2.1616,2.1641,2.165,2.1658,2.1664,2.1688,2.1699,2.158,2.158,2.158,0,0,2.1571,2.1564,2.1577,2.1586,2.1584,2.1603,2.1557,2.1578,2.1592,2.1549,2.1579,2.1573,2.1572,2.1611,2.1628,2.1608,2.1696,2.1664,2.167,2.1672,2.1694,2.1706,2.1716,2.1583,2.1583,2.1582,0,0,2.1646,2.1642,2.1673,2.1672,2.1671,2.1657,2.1665,2.1656,2.1651,2.168,2.1648,2.1664,2.1687,2.1688,2.1691,2.1766,2.1742,2.1771,2.1818,2.1843,2.1852,2.186,2.1888,2.1898,2.1776,2.1777,2.1777,0,2.169,2.1717,2.1692,2.1716,2.1721,2.1683,2.1714,2.1715,2.1717,2.1721,2.1699,2.1728,2.1724,2.1763,2.1782,2.1786,2.1794,2.1772,2.1853,2.1861,2.1868,2.1894,2.1904,2.178,2.178,2.1779,2.1779,0,2.1772,2.1791,2.1816,2.182,2.1827,2.1855,2.1834,2.1845,2.1827,2.1816,2.1847,2.1841,2.1851,2.1858,2.1841,2.1895,2.1883,2.1858,2.1819,2.1883,2.1907,2.1917,2.1785,2.1784,2.1783,2.1782,0,0,2.1883,2.1872,2.1882,2.1883,2.1878,2.1892,2.1918,2.1927,2.1937,2.194,2.1961,2.1982,2.1958,2.1962,2.1944,2.1965,2.2026,2.1937,2.1936,2.1954,2.2086,2.2106,2.2117,2.2009,2.2011,2.2013,2.2086,0,2.1956,2.1999,2.1977,2.2023,2.2041,2.2005,2.2028,2.2027,2.2018,2.2031,2.2021,2.2036,2.2003,2.2005,2.2025,2.2014,2.2052,2.2009,2.2029,2.203,2.2031,2.213,2.2151,2.222,2.2095,2.2097,2.2098,0,2.2046,2.2053,2.2101,2.2093,2.2099,2.212,2.2127,2.214,2.2139,2.2131,2.2135,2.2113,2.2137,2.2099,2.2133,2.2104,2.2111,2.2107,2.2109,2.2111,2.2068,2.2135,2.2242,2.2253,2.2112,2.2111,2.211,0,2.2123,2.2144,2.2175,2.2177,2.2169,2.2184,2.2181,2.2178,2.2185,2.2191,2.2196,2.2205,2.221,2.2217,2.2198,2.2172,2.2235,2.2195,2.2229,2.223,2.2245,2.2244,2.2355,2.2248,2.2248,2.2248,2.2248,0,2.2207,2.2238,2.221,2.2229,2.2263,2.2238,2.2272,2.2265,2.2262,2.228,2.2249,2.2267,2.2239,2.2254,2.2239,2.227,2.2272,2.2266,2.2262,2.227,2.2271,2.2274,2.2269,2.2251,2.225,2.225,2.2249,0,2.2299,2.2281,2.2313,2.2303,2.23,2.2326,2.2317,2.2334,2.2322,2.2345,2.2349,2.2331,2.2347,2.2328,2.2342,2.2332,2.2374,2.2362,2.2374,2.2371,2.2407,2.2404,2.2525,2.254,2.2423,2.2424,2.2425,0,2.2354,2.2377,2.2369,2.2378,2.2377,2.2393,2.24,2.2376,2.2385,2.2385,2.2403,2.2416,2.2425,2.2452,2.244,2.2451,2.2439,2.2481,2.2441,2.2448,2.2441,2.244,2.2442,2.2489,2.2491,2.2492,2.2493,0,2.2454,2.2444,2.2456,2.2464,2.2474,2.2479,2.2483,2.2492,2.2467,2.2478,2.2494,2.2501,2.2515,2.2529,2.2536,2.2533,2.251,2.2506,2.2514,2.2523,2.2529,2.2527,2.2397,2.2503,2.2502,2.2501,2.2501,2.25,2.253,2.2549,2.2546,2.256,2.256,2.2563,2.258,2.257,2.2582,2.2592,2.2577,2.2597,2.2595,2.2602,2.2602,2.2617,2.2599,2.2612,2.2615,2.2619,2.2625,2.2526,2.2618,2.2618,2.2618,2.2617,2.2617,0,2.2629,2.2625,2.2638,2.2644,2.2655,2.2631,2.2633,2.2644,2.2662,2.2662,2.2672,2.269,2.2703,2.2692,2.2702,2.2717,2.2706,2.2721,2.272,2.2719,2.2639,2.2631,2.2729,2.2729,2.2729,2.2729,2.2729,2.2729,2.2682,2.2713,2.2702,2.2733,2.2729,2.2748,2.2752,2.2755,2.2755,2.2777,2.2787,2.278,2.2776,2.2786,2.2797,2.2793,2.2799,2.2817,2.281,2.2736,2.2725,2.2715,2.2707,2.2819,2.2819,2.2889,2.289,2.289]}]]